Starlink 11352

operational
NORAD ID: 62880 Int'l Des: 2025-024 Owner: SPXS Country: US Constellation: starlink
LEOCIRCULAR

Über Starlink 11352

Beschreibung wird geladen...

Live-Position

3D-Globus wird geladen...

Nächste Überflüge

Höhenverlauf

Altitude vs Time

uPlot chart will show altitude changes over time

Zweizeiliger Elementsatz

1 62880U 25024B 25352.90401833 .00204411 00000-0 15503-2 0 9990
2 62880 42.9985 308.1808 0001679 231.1148 128.9570 15.70953067 50767
Epoch: 18. Dez. 2025 • Age: 7 hours

Aktueller Status

Höhe 367.9 km
Geschwindigkeit 7.69 km/s
Subsatellitenpunkt -42.65°S, 43.89°E
Startdatum 4. Feb. 2025
Alter 0.8 years
Typ internet

Technische Details

Klassifizierung Payload
Masse 960.00 kg
Trockenmasse 910.00 kg
Gesamtmasse 960.00 kg
Länge 0.30 m
Durchmesser 4.10 m
Spannweite 29.00 m
Form Box + pan
Hersteller SPXS
Bus-Typ Starlink V2MD
Phasenstatus In Orbit
Besitzer/Staat SPXS/US

Große Konstellationen

Loading constellations...